Flag for Sweden Weather past 2 weeks in Gävle, Sweden

Now
55 °F

Cool.


Feels Like: 55 °F
Forecast: 40 / 55 °F
Wind: 2 mph from Northwest

Location: Films Kyrkby

Current Time: Sep 30, 2014 at 2:43:02 PM

Latest Report: Sep 30, 2014 at 2:00 PM


Visibility: 28 mi

Pressure: 30.34 "Hg

Humidity: 50%

Dew point: 37 °F

Location of GävleLocation

Historic Weather in Gävle — Graph

°F

Gävle temperature yesterday

Maximum temperature yesterday: 63 °F (at 2:00 PM)
Minimum temperature yesterday: 43 °F (at 11:00 PM)
Average temperature yesterday: 52 °F

Past Weeks' High & Low Weather Summary

 TemperatureHumidityPressure
High68 °F (Sep 15, 1:00 PM)100% (Sep 21, 7:00 AM)30.48 "Hg (Sep 21, 7:00 AM)
Low24 °F (Sep 24, 3:00 AM)39% (Sep 29, 2:00 PM)29.41 "Hg (Sep 26, 7:00 PM)
Average48 °F83%29.96 "Hg
* Reported Sep 15 1:00 PM — Sep 30 1:00 PM, Gävle, Weather by CustomWeather, © 2014

Note: Actual official high and low records may vary slightly from our data, if they occured in-between our weather recording intervals... More about our weather records

Advertising

Gävle weather history for previous 24 hours

 ConditionsComfort  
Time TempWeatherWind HumidityBarometerVisibility
1:00 PM
Sep 30
54 °FCool.2 mph56%30.34 "Hg22 mi
12:00 PM53 °FCool.2 mph64%30.33 "Hg22 mi
11:00 AM51 °FCool.2 mph66%30.32 "Hg22 mi
10:00 AM48 °FCool.1 mph72%30.31 "Hg28 mi
9:00 AM41 °FQuite cool.1 mph92%30.29 "Hg14 mi
8:00 AM31 °FFog.1 mph97%30.27 "Hg3 mi
7:00 AM29 °FFog.No wind97%30.25 "Hg4 mi
6:00 AM31 °FFog.1 mph98%30.24 "Hg5 mi
5:00 AM30 °FChilly.1 mph96%30.23 "Hg6 mi
4:00 AM32 °FChilly.1 mph96%30.21 "Hg9 mi
3:00 AM33 °FChilly.1 mph95%30.19 "Hg12 mi
2:00 AM34 °FChilly.No wind93%30.18 "Hg19 mi
1:00 AM37 °FChilly.1 mph89%30.18 "Hg28 mi
12:00 AM39 °FChilly.1 mph84%30.16 "Hg28 mi
11:00 PM
Sep 29
43 °FQuite cool.1 mph76%30.14 "Hg31 mi
10:00 PM45 °FCool.1 mph71%30.12 "Hg31 mi
9:00 PM46 °FCool.1 mph71%30.09 "Hg31 mi
8:00 PM48 °FCool.No wind66%30.08 "Hg31 mi
7:00 PM50 °FCool.1 mph64%30.06 "Hg31 mi
6:00 PM56 °FRefreshingly cool.2 mph46%30.04 "Hg31 mi
5:00 PM59 °FRefreshingly cool.2 mph41%30.02 "Hg31 mi
4:00 PM60 °FRefreshingly cool.2 mph42%30.01 "Hg31 mi
2:00 PM63 °FMild.3 mph39%29.98 "Hg25 mi
Weather by CustomWeather, © 2014

See weather overviewHow to use our weather pages